TimeCDT,TemperatureF,Dew PointF,Humidity,Sea Level PressureIn,VisibilityMPH,Wind Direction,Wind SpeedMPH,Gust SpeedMPH,PrecipitationIn,Events,Conditions,WindDirDegrees,DateUTC
12:15 AM,64.4,62.6,94,30.02,10.0,Calm,Calm,-,N/A,,Mostly Cloudy,0,2013-09-11 05:15:00
12:35 AM,64.4,62.6,94,30.03,10.0,Calm,Calm,-,N/A,,Scattered Clouds,0,2013-09-11 05:35:00
12:55 AM,64.4,62.6,94,30.03,10.0,Calm,Calm,-,N/A,,Mostly Cloudy,0,2013-09-11 05:55:00
1:35 AM,64.4,62.6,94,30.04,10.0,Calm,Calm,-,N/A,,Mostly Cloudy,0,2013-09-11 06:35:00
1:37 AM,66.2,62.6,88,30.04,10.0,Calm,Calm,-,N/A,,Mostly Cloudy,0,2013-09-11 06:37:00
1:55 AM,64.4,62.6,94,30.04,10.0,Calm,Calm,-,N/A,,Mostly Cloudy,0,2013-09-11 06:55:00
2:15 AM,62.6,60.8,94,30.04,10.0,Calm,Calm,-,N/A,,Mostly Cloudy,0,2013-09-11 07:15:00
2:35 AM,64.4,62.6,94,30.04,10.0,Calm,Calm,-,N/A,,Scattered Clouds,0,2013-09-11 07:35:00
2:55 AM,62.6,60.8,94,30.04,10.0,Calm,Calm,-,N/A,,Mostly Cloudy,0,2013-09-11 07:55:00
3:15 AM,62.6,60.8,94,30.04,10.0,Calm,Calm,-,N/A,,Mostly Cloudy,0,2013-09-11 08:15:00
3:35 AM,62.6,60.8,94,30.04,10.0,Calm,Calm,-,N/A,,Mostly Cloudy,0,2013-09-11 08:35:00
3:55 AM,62.6,60.8,94,30.05,10.0,Calm,Calm,-,N/A,,Mostly Cloudy,0,2013-09-11 08:55:00
4:15 AM,64.4,62.6,94,30.05,10.0,Calm,Calm,-,N/A,,Overcast,0,2013-09-11 09:15:00
4:35 AM,64.4,62.6,94,30.05,10.0,Calm,Calm,-,N/A,,Overcast,0,2013-09-11 09:35:00
4:55 AM,66.2,62.6,88,30.05,10.0,Calm,Calm,-,N/A,,Overcast,0,2013-09-11 09:55:00
5:15 AM,64.4,62.6,94,30.06,10.0,Calm,Calm,-,N/A,,Overcast,0,2013-09-11 10:15:00
5:35 AM,64.4,62.6,94,30.06,10.0,Calm,Calm,-,N/A,,Mostly Cloudy,0,2013-09-11 10:35:00
5:55 AM,64.4,62.6,94,30.06,10.0,NW,3.5,-,N/A,,Scattered Clouds,320,2013-09-11 10:55:00
6:15 AM,64.4,62.6,94,30.07,10.0,WNW,3.5,-,N/A,,Clear,290,2013-09-11 11:15:00
6:35 AM,64.4,62.6,94,30.07,10.0,Calm,Calm,-,N/A,,Mostly Cloudy,0,2013-09-11 11:35:00
6:55 AM,64.4,62.6,94,30.06,10.0,Calm,Calm,-,N/A,,Overcast,0,2013-09-11 11:55:00
7:15 AM,64.4,62.6,94,30.07,10.0,Calm,Calm,-,N/A,,Mostly Cloudy,0,2013-09-11 12:15:00
7:35 AM,64.4,62.6,94,30.07,10.0,Calm,Calm,-,N/A,,Overcast,0,2013-09-11 12:35:00
7:55 AM,66.2,62.6,88,30.07,10.0,SW,3.5,-,N/A,,Scattered Clouds,220,2013-09-11 12:55:00
8:15 AM,68.0,64.4,88,30.07,10.0,Calm,Calm,-,N/A,,Clear,0,2013-09-11 13:15:00
8:35 AM,68.0,64.4,88,30.07,10.0,West,3.5,-,N/A,,Scattered Clouds,280,2013-09-11 13:35:00
8:55 AM,69.8,64.4,83,30.07,10.0,Calm,Calm,-,N/A,,Scattered Clouds,0,2013-09-11 13:55:00
9:15 AM,69.8,64.4,83,30.08,10.0,WNW,4.6,-,N/A,,Scattered Clouds,290,2013-09-11 14:15:00
9:35 AM,71.6,62.6,73,30.09,10.0,WNW,3.5,-,N/A,,Clear,290,2013-09-11 14:35:00
9:46 AM,71.6,64.4,78,30.09,10.0,WNW,3.5,-,N/A,,Clear,290,2013-09-11 14:46:00
9:55 AM,71.6,62.6,73,30.09,10.0,West,4.6,-,N/A,,Clear,260,2013-09-11 14:55:00
10:06 AM,73.4,64.4,73,30.09,10.0,SW,3.5,-,N/A,,Clear,220,2013-09-11 15:06:00
10:15 AM,73.4,62.6,69,30.09,10.0,SSW,3.5,-,N/A,,Clear,200,2013-09-11 15:15:00
10:35 AM,73.4,60.8,65,30.10,10.0,Calm,Calm,-,N/A,,Clear,0,2013-09-11 15:35:00
10:46 AM,75.2,62.6,65,30.10,10.0,Calm,Calm,-,N/A,,Clear,0,2013-09-11 15:46:00
10:55 AM,77.0,60.8,57,30.10,10.0,Calm,Calm,-,N/A,,Clear,0,2013-09-11 15:55:00
11:15 AM,77.0,59.0,54,30.09,10.0,WSW,3.5,-,N/A,,Clear,240,2013-09-11 16:15:00
11:26 AM,78.8,60.8,54,30.09,10.0,West,4.6,-,N/A,,Clear,260,2013-09-11 16:26:00
11:35 AM,78.8,60.8,54,30.09,10.0,WSW,4.6,-,N/A,,Clear,240,2013-09-11 16:35:00
11:55 AM,80.6,59.0,48,30.09,10.0,West,5.8,-,N/A,,Clear,280,2013-09-11 16:55:00
12:06 PM,80.6,57.2,45,30.09,10.0,WNW,10.4,-,N/A,,Clear,300,2013-09-11 17:06:00
12:15 PM,80.6,57.2,45,30.09,10.0,West,4.6,-,N/A,,Clear,260,2013-09-11 17:15:00
12:35 PM,82.4,53.6,37,30.09,10.0,NW,9.2,-,N/A,,Clear,310,2013-09-11 17:35:00
12:55 PM,82.4,51.8,35,30.09,10.0,WNW,9.2,-,N/A,,Clear,300,2013-09-11 17:55:00
1:15 PM,80.6,53.6,39,30.09,10.0,WNW,9.2,-,N/A,,Clear,300,2013-09-11 18:15:00
1:35 PM,82.4,53.6,37,30.08,10.0,WNW,9.2,-,N/A,,Clear,300,2013-09-11 18:35:00
1:55 PM,82.4,51.8,35,30.08,10.0,WNW,9.2,16.1,N/A,,Clear,290,2013-09-11 18:55:00
2:15 PM,82.4,51.8,35,30.08,10.0,West,5.8,-,N/A,,Clear,270,2013-09-11 19:15:00
2:35 PM,82.4,53.6,37,30.08,10.0,West,8.1,-,N/A,,Clear,270,2013-09-11 19:35:00
2:55 PM,82.4,53.6,37,30.08,10.0,West,5.8,-,N/A,,Clear,260,2013-09-11 19:55:00
3:15 PM,84.2,51.8,33,30.07,10.0,WNW,12.7,-,N/A,,Clear,290,2013-09-11 20:15:00
3:35 PM,84.2,50.0,30,30.07,10.0,WNW,13.8,-,N/A,,Clear,290,2013-09-11 20:35:00
3:55 PM,84.2,50.0,30,30.07,10.0,West,11.5,16.1,N/A,,Clear,270,2013-09-11 20:55:00
4:15 PM,86.0,51.8,31,30.07,10.0,WNW,12.7,-,N/A,,Clear,290,2013-09-11 21:15:00
4:35 PM,84.2,51.8,33,30.06,10.0,NW,9.2,17.3,N/A,,Scattered Clouds,310,2013-09-11 21:35:00
4:55 PM,82.4,51.8,35,30.07,10.0,NNW,11.5,-,N/A,,Clear,330,2013-09-11 21:55:00
5:15 PM,80.6,51.8,37,30.07,10.0,NNW,11.5,-,N/A,,Clear,340,2013-09-11 22:15:00
5:35 PM,80.6,50.0,34,30.07,10.0,NNW,10.4,-,N/A,,Clear,340,2013-09-11 22:35:00
5:55 PM,78.8,50.0,36,30.07,10.0,NNW,9.2,-,N/A,,Clear,340,2013-09-11 22:55:00
6:15 PM,78.8,51.8,39,30.07,10.0,NW,5.8,-,N/A,,Clear,320,2013-09-11 23:15:00
6:35 PM,78.8,51.8,39,30.06,10.0,NNW,6.9,-,N/A,,Clear,330,2013-09-11 23:35:00
6:55 PM,78.8,51.8,39,30.06,10.0,NW,4.6,-,N/A,,Clear,310,2013-09-11 23:55:00
7:15 PM,75.2,53.6,47,30.06,10.0,NW,3.5,-,N/A,,Clear,310,2013-09-12 00:15:00
7:35 PM,71.6,53.6,53,30.07,10.0,West,3.5,-,N/A,,Clear,280,2013-09-12 00:35:00
7:55 PM,69.8,53.6,56,30.06,10.0,Calm,Calm,-,N/A,,Clear,0,2013-09-12 00:55:00
8:15 PM,68.0,55.4,64,30.07,10.0,West,3.5,-,N/A,,Clear,280,2013-09-12 01:15:00
8:35 PM,66.2,53.6,64,30.09,10.0,Calm,Calm,-,N/A,,Clear,0,2013-09-12 01:35:00
8:55 PM,64.4,53.6,68,30.09,10.0,Calm,Calm,-,N/A,,Clear,0,2013-09-12 01:55:00
9:15 PM,60.8,53.6,77,30.09,10.0,Calm,Calm,-,N/A,,Clear,0,2013-09-12 02:15:00
9:35 PM,60.8,55.4,82,30.09,10.0,Calm,Calm,-,N/A,,Clear,0,2013-09-12 02:35:00
9:55 PM,60.8,55.4,82,30.09,10.0,Calm,Calm,-,N/A,,Clear,0,2013-09-12 02:55:00
10:15 PM,60.8,53.6,77,30.09,10.0,Calm,Calm,-,N/A,,Clear,0,2013-09-12 03:15:00
10:35 PM,60.8,53.6,77,30.08,10.0,Calm,Calm,-,N/A,,Clear,0,2013-09-12 03:35:00
10:55 PM,60.8,55.4,82,30.08,10.0,Calm,Calm,-,N/A,,Clear,0,2013-09-12 03:55:00
11:15 PM,59.0,55.4,88,30.08,10.0,Calm,Calm,-,N/A,,Clear,0,2013-09-12 04:15:00
11:35 PM,59.0,55.4,88,30.07,10.0,Calm,Calm,-,N/A,,Clear,0,2013-09-12 04:35:00
11:55 PM,59.0,55.4,88,30.07,10.0,Calm,Calm,-,N/A,,Clear,0,2013-09-12 04:55:00